Regional Weather Roundup
Issued by NWS

Home | Current Version | Previous Version | Text Only | Print | Product List | Glossary Off
Versions: 1 2 3 4 5 6 7 8 9 10 11 12 13 14 15 16 17 18 19 20 21 22 23 24 25 26 27 28 29 30 31 32 33 34 35 36 37 38 39 40 41 42 43 44 45 46 47 48 49 50

000
ASUS45 KCYS 191610
RWRWY

WYOMING REGIONAL WEATHER ROUNDUP
NATIONAL WEATHER SERVICE CHEYENNE WY
900 AM MST THU JAN 19 2017

NOTE:  "FAIR" INDICATES FEW OR NO CLOUDS BELOW 12,000 FEET
WITH NO SIGNIFICANT WEATHER AND/OR OBSTRUCTIONS TO VISIBILITY.

WYZ001-191700-
YELLOWSTONE NATIONAL PARK

CITY           SKY/WX    TMP DP  RH WIND       PRES   REMARKS
LK YELLOWSTONE   N/A     22  21  96 CALM      29.70S
W YELLOWSTONE  NOT AVBL

$$
WYZ002>013-054>058-071-098>099-191700-
NORTHERN WYOMING

CITY           SKY/WX    TMP DP  RH WIND       PRES   REMARKS
JACKSON        MOCLDY    14  12  92 CALM      29.72R
CODY           MOCLDY    30  21  69 S6        29.58S WCI  24
GREYBULL       FAIR       5   3  91 SE3       29.63R
WORLAND        FAIR      10   7  87 SW5       29.62R WCI   2
SHERIDAN       FAIR      16  12  84 S5        29.52R WCI   9
BUFFALO        FAIR      38  18  44 W12       29.51R WCI  30
GILLETTE       FAIR      37  19  48 SW20G26   29.50S WCI  27
HULETT         FAIR      36  18  48 CALM      29.52F
NEWCASTLE      FAIR      28  18  64 N8        29.57S WCI  20

$$
WYZ014>020-022>026-101>103-191700-
CENTRAL WYOMING

CITY           SKY/WX    TMP DP  RH WIND       PRES   REMARKS
BIG PINEY      CLOUDY     2  -2  83 E6        29.74F WCI  -9
PINEDALE       CLOUDY     1   0  92 CALM      29.74S
DUBOIS         NOT AVBL
LANDER         FAIR      10   7  87 S3        29.66R
RIVERTON       FAIR       8   4  83 NW7       29.66S WCI  -3
CASPER         FAIR      35  21  56 SW25G41   29.63R WCI  23
DOUGLAS        FAIR      37  20  50 NW12      29.56F WCI  29

$$
WYZ021-027>030-104>119-191700-
SOUTHERN WYOMING

CITY           SKY/WX    TMP DP  RH WIND       PRES   REMARKS
EVANSTON       CLOUDY    26  17  68 SW13      29.72R WCI  15
ROCK SPRINGS   FAIR       4  -1  80 CALM      29.74R
RAWLINS        FAIR      26  18  71 SW8       29.73S WCI  18
LARAMIE        FAIR      19  10  68 NE6       29.67S WCI  11
CHEYENNE       FAIR      44  14  29 W8        29.59S
TORRINGTON     FAIR      30  21  69 E7        29.57S WCI  23

$$



USA.gov is the U.S. government's official web portal to all federal, state and local government web resources and services.